FW3072 Weather Reports


Display with metric or nautical units.
time (UTC)temp
F
wind
direction
speed
MPH
gust
MPH
rain 1hr
in
rain 24hr
in
rain mn
in
humidity
%
barometer
mb
20260504234246 68 236 2.0 6.0 0.00 0.00 0.00 47 1002.0
20260504233202 68 242 2.0 9.0 0.00 0.00 0.00 46 1001.9
20260504232204 69 261 4.0 11.0 0.00 0.00 0.00 50 1002.0
20260504231203 69 277 6.0 13.0 0.00 0.00 0.00 48 1002.1
20260504230203 69 245 3.0 12.0 0.00 0.00 0.00 49 1002.2
20260504225201 69 233 3.0 12.0 0.00 0.00 0.00 49 1002.2
20260504224203 69 270 4.0 11.0 0.00 0.00 0.00 48 1002.3
20260504223225 70 274 4.0 16.0 0.00 0.00 0.00 48 1002.2
20260504222201 70 300 3.0 12.0 0.00 0.00 0.00 48 1002.2
20260504221204 70 263 5.0 18.0 0.00 0.00 0.00 44 1002.3
20260504220223 71 248 4.0 13.0 0.00 0.00 0.00 44 1002.1
20260504215203 71 252 3.0 11.0 0.00 0.00 0.00 44 1002.2
20260504214202 71 284 5.0 19.0 0.00 0.00 0.00 42 1002.2
20260504213203 71 253 3.0 16.0 0.00 0.00 0.00 45 1002.1
20260504212201 71 268 5.0 14.0 0.00 0.00 0.00 44 1002.1
20260504211202 70 276 5.0 14.0 0.00 0.00 0.00 48 1002.2
20260504210202 70 227 3.0 10.0 0.00 0.00 0.00 50 1002.4
20260504205202 70 218 3.0 14.0 0.00 0.00 0.00 49 1002.4
20260504204201 70 234 4.0 11.0 0.00 0.00 0.00 49 1002.7
20260504203223 70 224 3.0 12.0 0.00 0.00 0.00 49 1002.7
20260504202202 71 255 4.0 10.0 0.00 0.00 0.00 50 1002.8
20260504201202 71 217 5.0 9.0 0.00 0.00 0.00 47 1002.9
20260504200202 71 238 3.0 11.0 0.00 0.00 0.00 48 1002.9
20260504195202 72 255 3.0 12.0 0.00 0.00 0.00 51 1003.0
20260504194202 71 232 4.0 12.0 0.00 0.00 0.00 50 1003.0
20260504193203 71 215 4.0 10.0 0.00 0.00 0.00 51 1003.5
20260504192203 71 230 3.0 12.0 0.00 0.00 0.00 50 1003.5
20260504191202 72 203 4.0 14.0 0.00 0.00 0.00 49 1003.6
20260504190202 71 250 5.0 19.0 0.00 0.00 0.00 49 1003.7
20260504185202 70 225 4.0 11.0 0.00 0.00 0.00 51 1003.9
20260504184202 70 246 7.0 11.0 0.00 0.00 0.00 52 1004.0
20260504183202 70 240 6.0 14.0 0.00 0.00 0.00 52 1004.2
20260504182202 70 213 4.0 9.0 0.00 0.00 0.00 54 1004.3
20260504181202 69 234 4.0 11.0 0.00 0.00 0.00 54 1004.5
20260504180202 68 226 6.0 15.0 0.00 0.00 0.00 55 1004.6
20260504175202 68 236 5.0 15.0 0.00 0.00 0.00 53 1004.8
20260504174202 68 215 5.0 9.0 0.00 0.00 0.00 56 1004.9
20260504173202 67 252 4.0 20.0 0.00 0.00 0.00 57 1005.0
20260504172202 66 224 3.0 16.0 0.00 0.00 0.00 56 1005.1
20260504171202 66 247 6.0 11.0 0.00 0.00 0.00 57 1005.2
20260504170202 65 241 4.0 16.0 0.00 0.00 0.00 59 1005.2
20260504160202 63 229 5.0 14.0 0.00 0.00 0.00 58 1006.0
20260504150203 61 227 7.0 15.0 0.00 0.00 0.00 58 1006.2
20260504141203 59 232 6.0 16.0 0.00 0.00 0.00 59 1006.0
20260504140224 59 221 6.0 15.0 0.00 0.00 0.00 59 1006.1
20260504130202 57 212 3.0 14.0 0.00 0.00 0.00 61 1006.5
20260504120203 54 200 3.0 9.0 0.00 0.00 0.00 63 1006.4
20260504110202 50 217 2.0 4.0 0.00 0.00 0.00 67 1006.7
20260504100202 50 258 1.0 3.0 0.00 0.00 0.00 65 1006.5
20260504081223 47 247 1.0 6.0 0.00 0.00 0.00 74 1007.4
20260504080202 47 199 2.0 4.0 0.00 0.00 0.00 77 1007.4
20260504070204 49 215 3.0 6.0 0.00 0.00 0.00 76 1008.1
20260504060202 50 173 3.0 8.0 0.00 0.00 0.00 73 1008.6
20260504050202 51 240 5.0 19.0 0.00 0.00 0.00 69 1009.0
20260504045202 51 234 3.0 14.0 0.00 0.00 0.00 68 1009.1
20260504044225 51 270 4.0 10.0 0.00 0.00 0.00 66 1009.1
20260504043202 51 265 5.0 12.0 0.00 0.00 0.00 65 1009.2
20260504042201 51 263 5.0 17.0 0.00 0.00 0.00 64 1009.1
20260504041202 51 264 3.0 15.0 0.00 0.00 0.00 62 1009.1
20260504040202 52 261 3.0 9.0 0.00 0.00 0.00 61 1009.0
20260504035202 52 281 7.0 19.0 0.00 0.00 0.00 60 1009.0
20260504034202 53 257 3.0 8.0 0.00 0.00 0.00 60 1008.9
20260504033202 53 263 3.0 8.0 0.00 0.00 0.00 59 1009.0
20260504032202 54 235 5.0 13.0 0.00 0.00 0.00 57 1009.1
20260504031202 54 242 4.0 10.0 0.00 0.00 0.00 57 1009.1
20260504030201 54 268 5.0 12.0 0.00 0.00 0.00 56 1009.1
20260504025224 54 245 4.0 17.0 0.00 0.00 0.00 56 1009.1
20260504024202 54 274 6.0 14.0 0.00 0.00 0.00 56 1009.1
20260504023203 54 262 6.0 16.0 0.00 0.00 0.00 56 1009.2
20260504022223 53 260 6.0 15.0 0.00 0.00 0.00 57 1009.1
20260504021202 53 233 1.0 12.0 0.00 0.00 0.00 60 1009.2
20260504020202 53 231 2.0 14.0 0.00 0.00 0.00 60 1009.3
20260504015204 53 242 3.0 12.0 0.00 0.00 0.00 59 1009.3
20260504014225 53 215 3.0 9.0 0.00 0.00 0.00 59 1009.2
20260504013202 53 256 4.0 12.0 0.00 0.00 0.00 60 1009.2
20260504012203 53 266 5.0 18.0 0.00 0.00 0.00 59 1009.3
20260504011202 53 228 5.0 20.0 0.00 0.00 0.00 58 1009.3
20260504010202 53 219 4.0 16.0 0.00 0.00 0.00 58 1009.3
20260504005202 53 251 3.0 19.0 0.00 0.00 0.00 60 1009.2
20260504004202 53 278 5.0 16.0 0.00 0.00 0.00 60 1009.2
20260504003202 52 277 4.0 14.0 0.00 0.00 0.00 60 1009.2
20260504002202 52 257 4.0 12.0 0.00 0.00 0.00 62 1009.2
20260504000223 53 233 3.0 9.0 0.00 0.00 0.00 61 1009.3
20260503235202 53 261 2.0 9.0 0.00 0.00 0.00 61 1009.4